CW8095 Weather Reports


Display with metric or nautical units.
time (UTC)temp
F
wind
direction
speed
MPH
gust
MPH
rain 1hr
in
rain 24hr
in
rain mn
in
humidity
%
barometer
mb
20260902192518 100 60 4.0 10.0 0.00 0.00 0.00 27 1013.5
20260902191528 100 317 3.0 8.0 0.00 0.00 0.00 29 1013.6
20260902190523 100 74 5.0 13.0 0.00 0.00 0.00 28 1013.8
20260902185518 100 81 4.0 11.0 0.00 0.00 0.00 28 1013.8
20260902184548 99 54 3.0 7.0 0.00 0.00 0.00 29 1014.2
20260902183523 100 31 3.0 10.0 0.00 0.00 0.00 29 1014.2
20260902182518 99 83 2.0 7.0 0.00 0.00 0.00 30 1014.4
20260902181528 99 322 3.0 9.0 0.00 0.00 0.00 30 1014.7
20260902180523 98 58 2.0 8.0 0.00 0.00 0.00 30 1014.8
20260902175518 98 47 4.0 8.0 0.00 0.00 0.00 30 1015.1
20260902174528 98 97 2.0 8.0 0.00 0.00 0.00 31 1015.3
20260902173524 97 354 3.0 7.0 0.00 0.00 0.00 32 1015.4
20260902172519 96 87 3.0 7.0 0.00 0.00 0.00 33 1015.5
20260902171609 95 77 3.0 7.0 0.00 0.00 0.00 33 1015.7
20260902170525 96 119 4.0 8.0 0.00 0.00 0.00 33 1016.0
20260902165520 96 105 2.0 3.0 0.00 0.00 0.00 33 1016.0
20260902164529 95 50 2.0 3.0 0.00 0.00 0.00 34 1016.1
20260902163525 95 61 3.0 8.0 0.00 0.00 0.00 34 1016.2
20260902162520 94 122 2.0 6.0 0.00 0.00 0.00 34 1016.2
20260902161530 94 107 3.0 7.0 0.00 0.00 0.00 34 1016.3
20260902160545 94 58 2.0 6.0 0.00 0.00 0.00 34 1016.3
20260902155528 92 101 2.0 6.0 0.00 0.00 0.00 35 1016.4
20260902154521 92 103 3.0 7.0 0.00 0.00 0.00 37 1016.4
20260902153530 90 60 3.0 7.0 0.00 0.00 0.00 39 1016.4
20260902152600 89 128 2.0 4.0 0.00 0.00 0.00 41 1016.5
20260902151527 88 87 2.0 6.0 0.00 0.00 0.00 43 1016.3
20260902150522 87 95 2.0 6.0 0.00 0.00 0.00 44 1016.3
20260902145526 86 107 1.0 3.0 0.00 0.00 0.00 45 1016.4
20260902144517 85 105 1.0 3.0 0.00 0.00 0.00 47 1016.2
20260902143527 84 127 1.0 4.0 0.00 0.00 0.00 49 1016.4
20260902142523 83 113 3.0 4.0 0.00 0.00 0.00 50 1016.3
20260902141517 81 122 2.0 6.0 0.00 0.00 0.00 53 1016.3
20260902140547 79 127 2.0 3.0 0.00 0.00 0.00 55 1016.3
20260902135522 78 127 3.0 6.0 0.00 0.00 0.00 57 1016.3
20260902134537 77 109 2.0 4.0 0.00 0.00 0.00 58 1016.1
20260902133527 75 109 2.0 4.0 0.00 0.00 0.00 60 1016.3
20260902132522 75 109 2.0 6.0 0.00 0.00 0.00 62 1016.3
20260902131517 74 114 3.0 7.0 0.00 0.00 0.00 63 1016.3
20260902130527 74 103 3.0 6.0 0.00 0.00 0.00 63 1016.1
20260902125522 73 104 2.0 4.0 0.00 0.00 0.00 64 1015.9
20260902124518 73 106 2.0 3.0 0.00 0.00 0.00 66 1015.8
20260902123528 72 110 1.0 3.0 0.00 0.00 0.00 66 1015.7
20260902122522 72 117 1.0 2.0 0.00 0.00 0.00 66 1015.6
20260902121517 72 106 2.0 4.0 0.00 0.00 0.00 65 1015.6
20260902120527 72 102 2.0 3.0 0.00 0.00 0.00 65 1015.6
20260902115522 72 94 2.0 3.0 0.00 0.00 0.00 65 1015.5
20260902114517 73 96 2.0 4.0 0.00 0.00 0.00 65 1015.6
20260902113527 72 102 2.0 3.0 0.00 0.00 0.00 65 1015.6
20260902112522 72 94 2.0 3.0 0.00 0.00 0.00 65 1015.6
20260902111517 73 86 0.0 1.0 0.00 0.00 0.00 66 1015.5
20260902110526 73 94 1.0 2.0 0.00 0.00 0.00 65 1015.5
20260902063544 78 139 3.0 8.0 0.00 0.00 0.00 54 1015.4
20260902062534 78 159 3.0 10.0 0.00 0.00 0.00 54 1015.5
20260902061553 78 149 3.0 9.0 0.00 0.00 0.00 54 1015.4
20260902060539 78 121 3.0 9.0 0.00 0.00 0.00 54 1015.2
20260902055519 78 154 3.0 8.0 0.00 0.00 0.00 54 1015.2
20260902054532 78 135 3.0 8.0 0.00 0.00 0.00 54 1015.1
20260902053543 79 140 3.0 8.0 0.00 0.00 0.00 54 1015.0
20260902052541 79 153 3.0 9.0 0.00 0.00 0.00 53 1015.2
20260902051529 79 130 3.0 8.0 0.00 0.00 0.00 53 1015.2
20260902050537 79 138 4.0 10.0 0.00 0.00 0.00 52 1015.1
20260902045536 80 136 3.0 8.0 0.00 0.00 0.00 51 1015.2
20260902044524 80 139 4.0 9.0 0.00 0.00 0.00 51 1015.1
20260902043544 80 130 4.0 9.0 0.00 0.00 0.00 50 1015.1
20260902042527 81 141 4.0 10.0 0.00 0.00 0.00 49 1015.2
20260902041530 81 134 3.0 7.0 0.00 0.00 0.00 48 1015.1
20260902040527 81 130 4.0 9.0 0.00 0.00 0.00 48 1015.0
20260902035526 82 133 5.0 10.0 0.00 0.00 0.00 46 1015.0
20260902034524 82 115 3.0 6.0 0.00 0.00 0.00 45 1014.7
20260902033521 83 96 2.0 3.0 0.00 0.00 0.00 45 1014.6
20260902032519 83 104 2.0 3.0 0.00 0.00 0.00 45 1014.6
20260902031517 83 113 2.0 3.0 0.00 0.00 0.00 44 1014.6
20260902030522 84 118 3.0 3.0 0.00 0.00 0.00 43 1014.4
20260902015022 86 121 3.0 4.0 0.00 0.00 0.00 38 1013.4
20260902014017 87 104 3.0 6.0 0.00 0.00 0.00 38 1013.3
20260902013027 87 116 3.0 4.0 0.00 0.00 0.00 37 1013.2
20260902012022 87 108 3.0 6.0 0.00 0.00 0.00 37 1013.2
20260902011017 88 107 3.0 4.0 0.00 0.00 0.00 37 1013.1
20260902010047 88 116 3.0 6.0 0.00 0.00 0.00 36 1013.0
20260902005022 89 94 3.0 4.0 0.00 0.00 0.00 35 1013.0
20260902004037 90 119 3.0 7.0 0.00 0.00 0.00 35 1013.0
20260902003047 90 120 5.0 10.0 0.00 0.00 0.00 34 1013.0
20260902002022 91 111 3.0 6.0 0.00 0.00 0.00 34 1013.0
20260902001038 92 101 3.0 6.0 0.00 0.00 0.00 33 1013.1
20260902000027 92 126 3.0 7.0 0.00 0.00 0.00 32 1013.3
20260901235022 93 115 4.0 8.0 0.00 0.00 0.00 31 1013.2
20260901234017 93 105 4.0 8.0 0.00 0.00 0.00 31 1013.2
20260901233027 93 105 4.0 8.0 0.00 0.00 0.00 32 1013.3
20260901232021 93 92 3.0 7.0 0.00 0.00 0.00 33 1013.2
20260901231016 93 113 4.0 8.0 0.00 0.00 0.00 33 1013.3
20260901230026 94 107 3.0 7.0 0.00 0.00 0.00 33 1013.4
20260901225021 96 97 3.0 7.0 0.00 0.00 0.00 32 1013.3
20260901224016 95 54 2.0 6.0 0.00 0.00 0.00 36 1013.4
20260901223026 95 38 6.0 15.0 0.00 0.00 0.00 37 1013.5
20260901222041 97 112 3.0 10.0 0.00 0.00 0.00 27 1013.3
20260901221116 96 63 4.0 9.0 0.00 0.00 0.00 28 1013.3
20260901220026 95 122 3.0 6.0 0.00 0.00 0.00 29 1013.4
20260901215021 97 96 2.0 6.0 0.00 0.00 0.00 28 1013.5
20260901214016 96 85 3.0 8.0 0.00 0.00 0.00 29 1013.6
20260901213026 95 105 4.0 9.0 0.00 0.00 0.00 29 1013.7
20260901212021 96 121 4.0 8.0 0.00 0.00 0.00 27 1013.8
20260901211016 98 118 4.0 10.0 0.00 0.00 0.00 27 1014.0
20260901210026 98 122 5.0 10.0 0.00 0.00 0.00 27 1014.0
20260901205041 97 124 5.0 9.0 0.00 0.00 0.00 27 1014.0
20260901204016 97 113 4.0 9.0 0.00 0.00 0.00 27 1014.1
20260901203026 97 112 3.0 8.0 0.00 0.00 0.00 28 1014.2
20260901202021 97 119 2.0 8.0 0.00 0.00 0.00 28 1014.4
20260901201016 100 84 4.0 10.0 0.00 0.00 0.00 26 1014.5
20260901200026 99 49 2.0 6.0 0.00 0.00 0.00 27 1014.5
20260901195021 98 177 3.0 7.0 0.00 0.00 0.00 28 1014.7
20260901194016 99 150 4.0 9.0 0.00 0.00 0.00 27 1014.7